Wind_Speed
9 8 7 7 8 8 7 7 4 2 3 2 1 1 1 2 2 1 2 3 4 6 8 7 8 9 7 11 11 11 13 15 16 17 18 19 20 21 21 22 24 24 25 26 26 27 28 29 30 31 31 32 32 33 33 35 35 36 37 37 37 37 36 36 35 35 35 35 33 30 29 28 26 25
9 9 8 7 8 7 5 6 5 4 5 6 4 3 3 3 3 4 3 3 5 7 9 7 7 9 7 6 10 14 16 18 18 19 20 21 21 22 22 23 24 25 26 27 27 28 29 29 29 29 29 29 30 30 31 32 34 35 36 37 38 38 38 39 38 38 38 37 35 32 31 31 29 28
10 11 9 8 8 7 6 6 6 5 6 8 7 4 4 5 5 5 5 2 5 8 10 11 11 11 10 9 11 15 17 18 19 21 22 23 23 24 24 25 25 26 27 28 29 29 29 29 29 29 29 30 30 31 31 32 34 35 36 36 37 37 38 38 39 38 38 39 38 36 34 33 32 31
11 11 11 11 10 9 9 9 9 8 6 7 8 6 5 6 6 8 7 6 9 13 14 16 16 14 14 14 14 15 16 17 18 20 21 22 23 24 24 25 25 25 25 26 27 28 28 29 29 30 31 32 32 33 33 34 34 35 36 36 37 37 37 38 38 38 37 37 37 37 36 36 36 34
13 12 12 12 12 11 11 11 10 10 9 8 9 10 10 10 9 10 11 11 13 17 16 17 18 17 17 17 17 16 17 18 18 19 20 21 22 22 22 22 23 23 24 25 26 27 28 28 29 31 32 33 33 33 33 33 34 34 35 35 36 37 38 38 38 37 37 36 36 36 37 37 37 36
15 15 14 13 13 12 12 12 11 11 10 10 11 13 14 15 13 12 14 14 14 16 18 18 18 18 17 18 19 19 19 20 20 20 20 20 20 20 20 21 22 22 22 24 25 25 26 27 29 30 31 32 32 31 31 32 33 33 33 33 34 35 36 37 38 38 38 36 34 33 34 36 36 36
16 16 16 14 13 13 13 13 13 12 12 12 13 14 13 13 13 13 14 16 16 16 19 19 17 17 17 19 21 21 21 21 22 22 20 19 18 19 20 21 22 23 23 23 24 24 24 25 27 30 31 31 30 30 30 30 30 30 29 29 29 30 31 32 33 34 36 37 35 33 32 33 34 34
17 17 18 17 15 14 14 14 14 14 14 13 14 14 13 12 12 12 13 15 16 16 18 18 19 19 20 21 22 22 22 22 23 23 22 21 20 21 21 23 24 25 24 24 24 23 24 25 27 29 29 29 29 30 30 30 29 28 27 27 26 25 25 25 26 28 30 33 35 35 32 31 32 33
19 18 19 19 18 17 16 16 16 15 16 15 14 15 15 14 14 13 13 14 15 16 19 21 22 21 21 23 23 22 22 23 22 21 22 22 22 23 24 24 24 23 22 22 22 22 24 25 26 26 27 28 29 30 29 28 27 27 26 27 27 27 27 27 27 28 29 30 32 34 32 29 29 31
22 21 20 19 18 18 19 19 18 18 17 17 16 16 17 16 15 15 16 16 16 17 19 21 22 22 23 24 23 20 19 20 21 22 24 24 23 23 23 20 19 19 19 20 21 22 23 23 24 26 27 27 27 27 27 26 26 27 28 29 30 30 29 28 27 26 26 26 27 29 30 28 26 27
23 23 22 21 20 20 20 20 20 20 19 19 18 18 18 17 17 17 17 17 17 18 19 21 22 23 23 22 22 20 19 21 23 23 25 24 20 16 16 17 19 20 20 21 23 23 22 24 25 26 25 24 25 25 26 27 27 28 29 30 30 30 29 28 27 25 24 23 24 25 26 25 24 24
25 24 24 23 23 22 22 22 22 21 21 20 20 20 19 19 19 19 18 18 18 19 20 21 22 22 21 21 22 22 21 22 21 18 17 18 15 14 17 22 24 23 22 22 23 24 25 26 26 24 24 24 25 25 26 26 26 27 30 31 31 30 29 27 26 24 23 22 23 24 24 23 24 23
27 26 25 24 24 24 24 24 23 23 23 22 22 22 21 21 21 20 20 20 20 20 20 21 21 20 21 22 22 22 20 18 16 15 14 15 17 19 22 25 24 22 21 21 24 26 27 26 25 23 23 24 24 25 25 24 25 28 31 30 28 28 28 28 27 26 24 21 20 22 23 23 25 25
28 28 27 26 25 24 24 24 23 23 23 24 25 24 23 22 21 21 21 22 21 20 20 21 20 18 20 22 21 19 18 17 17 19 18 18 20 21 20 20 20 20 18 18 25 27 24 24 24 22 23 24 24 23 23 23 27 29 27 25 26 27 28 29 28 27 26 23 21 19 20 21 23 24
29 29 28 27 26 25 24 25 25 25 25 26 26 26 25 24 23 22 22 22 21 20 20 21 20 18 21 24 22 20 21 22 22 22 20 19 21 19 14 13 17 20 19 20 26 26 22 21 22 22 22 23 21 21 24 27 28 26 25 26 29 31 30 28 27 26 26 25 24 22 19 19 19 20
30 29 29 28 27 26 25 25 26 26 26 26 27 27 27 26 25 25 24 23 23 22 22 23 23 23 23 26 26 25 25 24 23 21 20 19 20 18 14 13 17 23 24 23 24 24 20 19 19 20 20 19 21 25 28 27 24 23 26 30 32 31 30 29 28 28 28 27 27 25 23 21 20 19
31 30 30 29 29 28 27 26 25 25 25 25 25 26 27 27 28 28 27 27 26 27 26 27 28 28 27 26 26 25 23 22 21 19 19 19 19 18 16 16 21 25 25 22 21 21 18 16 16 18 18 20 26 29 25 21 21 25 29 31 31 30 29 30 29 28 28 28 27 26 24 23 23 21
32 32 31 31 31 30 28 27 26 25 25 26 27 27 27 28 29 28 28 28 28 28 29 30 31 30 27 26 24 21 19 21 21 20 20 19 18 17 17 19 23 24 21 18 16 15 13 13 14 17 21 26 28 23 18 19 23 28 30 29 29 30 30 30 29 30 30 29 28 26 23 22 24 23
32 33 33 32 32 32 31 30 28 27 25 25 27 29 29 29 29 28 28 26 26 26 27 28 28 26 23 23 22 18 17 20 21 20 19 18 17 18 19 22 24 21 16 13 13 12 12 14 16 18 23 27 22 16 16 21 27 29 28 28 29 31 31 31 33 34 33 29 26 25 23 22 24 24
31 32 33 33 33 33 33 33 31 30 28 26 25 27 28 28 28 27 27 25 23 23 22 23 23 21 20 20 19 18 18 20 21 20 19 19 21 21 21 20 20 16 12 11 12 12 14 18 21 21 22 22 18 14 17 25 29 27 26 28 30 32 34 36 36 34 30 26 24 24 23 22 23 24
31 31 31 32 33 34 33 33 31 30 29 28 27 26 26 26 26 27 26 24 20 18 18 20 21 22 22 22 21 20 19 20 21 20 20 22 23 20 15 13 15 14 11 9 11 13 15 20 23 23 21 17 12 13 21 29 28 25 26 29 31 34 38 38 34 31 29 27 24 24 24 23 22 23
31 30 29 30 31 33 34 33 31 29 28 28 28 28 26 26 26 27 26 23 20 19 18 20 22 23 24 24 24 22 19 18 20 21 22 23 21 17 13 12 13 12 8 7 11 14 15 17 20 22 22 14 8 12 24 30 27 25 28 30 32 37 39 36 33 32 31 28 25 25 26 24 23 23
33 32 31 29 28 30 30 31 30 29 28 29 30 30 28 27 28 29 27 25 24 22 21 21 20 18 18 19 21 20 16 15 17 18 20 20 21 19 16 12 9 6 3 6 13 14 12 14 16 17 17 11 7 15 26 27 25 26 28 30 35 39 37 34 34 33 32 31 29 29 29 26 24 24
34 35 35 34 32 31 29 28 27 26 26 28 29 30 29 29 31 31 29 27 25 22 21 20 17 12 10 10 12 13 13 13 14 16 16 17 18 17 13 8 5 3 2 6 13 12 9 10 13 15 15 8 8 18 26 24 23 25 27 31 37 37 34 34 34 33 33 33 33 32 31 26 24 24
34 34 36 38 39 38 36 33 30 28 28 27 27 29 31 32 31 30 27 25 23 20 18 17 14 11 9 8 8 9 10 10 10 10 11 10 9 7 6 6 6 5 4 7 11 9 7 9 13 18 18 13 10 17 23 23 23 24 27 33 36 32 31 33 33 33 34 35 35 35 32 26 22 22
34 35 36 37 38 39 39 38 37 35 34 33 32 33 33 31 30 28 25 23 21 21 18 15 13 12 11 12 12 11 10 10 8 6 5 4 5 5 5 6 7 6 6 7 8 6 6 9 15 19 19 15 14 17 20 20 22 24 29 35 34 30 30 32 32 32 33 35 37 36 32 28 25 23
36 36 36 35 35 34 33 33 34 34 35 35 35 36 35 32 29 27 25 22 22 21 19 17 16 17 17 17 15 13 13 12 10 8 6 4 4 5 5 5 5 5 5 5 5 5 6 9 15 19 17 14 14 15 16 17 19 25 32 36 35 31 31 33 32 31 31 33 36 34 31 30 30 26
36 35 34 33 32 31 30 29 29 28 29 31 31 32 33 33 30 27 25 24 23 21 20 20 21 24 24 21 18 16 15 13 11 10 7 5 4 4 4 5 4 3 4 4 4 5 6 10 15 17 15 12 12 12 13 14 18 24 30 35 35 33 32 33 32 30 29 32 34 32 30 31 32 29
35 33 31 30 30 29 29 29 29 28 29 29 28 28 30 32 32 29 27 26 23 22 22 23 24 25 23 20 18 16 14 12 11 10 8 5 5 6 6 5 3 4 4 4 5 5 8 11 14 15 14 12 10 10 11 13 18 23 26 30 32 31 31 33 31 29 30 32 32 30 29 29 30 29
32 30 29 28 27 27 28 29 30 30 29 29 28 29 30 31 31 30 28 26 24 23 23 23 23 22 20 17 16 14 12 12 11 9 8 6 6 8 6 3 6 6 5 5 5 7 9 11 13 15 14 10 7 8 11 14 19 22 24 26 26 27 30 32 30 28 30 31 30 28 27 27 28 27
33 31 29 27 24 24 25 26 28 29 29 29 28 29 30 30 28 27 26 25 23 22 22 21 20 18 16 15 14 13 12 10 9 8 6 5 5 5 2 6 8 7 6 6 6 7 8 9 12 14 13 9 6 7 10 15 18 20 23 24 23 23 27 30 28 28 30 30 28 26 26 28 29 27
33 31 28 25 22 20 19 19 20 22 24 25 26 28 29 28 26 24 23 22 21 20 20 20 18 17 16 15 13 13 12 10 9 7 4 2 2 2 6 7 6 6 5 5 5 7 8 9 12 12 11 9 5 5 9 14 16 18 20 22 22 24 26 27 26 27 30 30 28 26 26 28 30 29
33 28 26 24 22 21 19 17 16 17 18 20 22 23 25 25 25 24 23 22 21 20 19 19 18 16 15 13 13 13 13 11 10 7 3 1 3 6 6 4 5 6 4 4 6 8 8 9 12 11 10 9 5 4 8 11 13 15 18 20 21 24 26 25 22 23 28 29 28 26 26 28 31 31
31 26 24 23 22 21 20 18 17 17 18 18 19 21 23 25 25 24 23 23 22 20 19 20 20 17 15 15 14 14 13 12 9 6 3 3 6 7 4 3 6 6 3 3 7 7 5 9 11 9 6 5 5 5 6 8 10 13 16 19 21 22 24 24 21 21 24 26 25 24 23 27 31 31
32 26 24 23 23 23 22 21 21 20 19 20 20 21 22 24 25 25 25 24 23 23 23 23 21 18 16 16 16 15 13 11 8 5 4 4 5 5 3 3 6 4 2 3 8 6 2 5 8 7 4 2 4 4 3 5 8 11 15 19 21 22 22 22 21 21 22 23 24 24 22 25 30 31
33 30 27 25 25 24 23 22 22 21 21 21 21 23 25 26 25 23 20 16 14 18 20 18 14 12 12 14 15 14 12 10 7 6 7 7 6 6 5 5 5 3 1 5 9 6 2 3 6 6 5 3 3 3 3 3 5 8 13 16 19 20 21 20 19 19 21 21 23 23 21 21 25 28
30 30 29 26 26 25 23 21 21 21 21 23 24 25 24 19 14 14 15 13 12 13 14 12 8 9 10 12 13 13 12 10 9 10 10 9 8 9 7 6 4 3 3 7 9 8 3 2 4 5 5 4 1 3 5 5 5 5 10 13 15 17 19 18 17 17 19 19 19 19 19 18 20 22
29 29 28 27 25 23 21 20 20 20 22 24 24 19 16 20 20 17 18 20 17 15 15 14 11 11 12 11 10 11 11 10 11 12 12 11 11 12 8 5 3 3 4 7 10 9 5 2 2 4 5 5 3 3 4 5 5 3 7 11 12 13 15 16 15 15 17 17 16 16 16 16 16 17
29 27 26 25 23 20 20 20 21 22 23 22 20 20 24 25 21 18 17 15 13 12 15 15 13 13 13 12 10 11 11 12 12 11 10 11 13 13 8 3 2 3 5 8 11 10 7 4 3 5 5 3 2 3 4 6 5 4 5 8 9 10 12 13 13 13 15 16 14 13 13 12 12 13
24 22 20 20 19 18 17 16 17 19 19 18 20 25 26 23 19 16 15 14 13 14 14 11 8 10 12 13 12 12 11 12 13 11 9 11 13 11 6 3 3 4 5 7 11 13 11 8 7 7 4 2 2 1 3 6 7 6 6 6 6 7 8 10 10 11 13 15 15 13 11 10 10 12
16 14 14 16 17 17 16 15 14 15 15 16 20 23 23 20 18 17 18 17 14 12 11 9 8 11 13 13 14 13 10 10 11 11 10 12 12 11 8 6 6 7 7 7 9 13 11 8 6 7 5 3 3 4 5 7 8 7 6 6 5 5 5 6 8 9 11 13 14 13 11 9 8 9
15 14 14 15 16 16 15 15 15 16 17 20 23 23 19 16 14 15 17 17 15 13 13 13 14 15 13 13 14 13 9 8 9 9 10 10 10 11 11 9 7 7 8 9 9 8 6 5 6 8 9 8 9 9 10 10 9 7 7 7 6 4 4 4 5 8 10 12 12 12 10 7 5 4
20 19 19 19 19 19 18 19 19 19 19 20 20 18 14 13 13 14 16 18 16 14 13 13 13 12 8 8 11 9 6 5 6 5 5 5 6 7 9 8 6 6 8 10 11 9 7 6 7 9 11 12 13 14 15 14 11 9 10 10 9 6 4 3 3 6 8 9 10 10 9 7 4 3
25 24 23 23 23 23 22 21 20 19 20 21 21 19 17 18 18 16 15 15 15 15 13 13 14 13 11 10 10 10 8 8 7 6 4 3 2 1 1 1 1 4 7 10 12 11 9 8 9 11 13 14 15 17 19 17 13 10 11 12 11 9 7 6 2 3 5 5 6 8 9 8 6 4
28 27 27 26 26 26 25 23 22 22 22 22 22 21 21 22 22 20 18 18 18 17 16 15 14 13 11 10 10 9 8 7 7 7 6 5 4 3 3 4 5 5 7 7 7 6 5 5 7 8 11 12 12 14 17 18 14 11 11 13 14 12 10 8 6 3 2 1 3 5 5 6 5 5
Wind_Direction
220 227 237 236 241 253 261 263 270 311 329 329 304 261 143 150 174 199 321 307 278 306 328 340 353 344 279 245 255 268 284 297 296 293 293 294 298 302 304 304 304 303 303 303 303 304 304 305 305 304 303 301 299 298 296 295 293 290 288 285 283 280 278 276 274 273 273 272 269 267 267 266 265 265
222 229 239 240 240 242 245 252 253 263 278 277 268 254 238 246 231 204 225 280 269 290 321 321 325 343 334 284 279 285 293 300 299 297 297 295 296 300 302 302 301 300 300 299 300 301 302 303 303 303 302 301 301 300 300 298 297 295 293 290 288 285 283 280 277 274 273 273 269 265 265 265 265 265
228 231 236 240 241 235 226 236 244 256 267 259 253 253 240 243 251 236 226 245 272 280 302 312 315 324 324 316 304 295 294 297 298 298 297 296 296 296 295 295 296 296 297 299 301 302 303 304 303 302 301 301 301 301 301 301 300 298 297 295 292 290 288 285 282 279 277 276 271 266 264 263 263 264
232 232 231 235 241 238 233 235 239 249 263 255 246 252 255 244 240 244 238 239 267 280 291 300 311 319 318 315 311 304 301 301 301 303 303 302 302 299 297 298 298 298 300 302 304 304 306 307 307 306 305 305 306 306 306 306 305 304 302 300 298 294 292 289 286 284 282 281 275 269 265 263 261 261
229 232 235 238 238 239 242 242 241 245 252 254 253 254 256 252 243 241 242 242 261 281 291 293 300 309 311 309 309 307 305 302 302 303 304 305 305 303 301 301 301 301 301 302 303 305 308 309 309 310 310 310 310 310 310 310 310 310 308 306 304 301 298 295 291 288 285 284 280 274 269 264 261 260
226 227 236 244 241 238 242 244 242 245 245 246 256 260 256 253 252 249 247 246 252 272 286 290 293 299 301 300 304 306 304 304 306 305 305 306 306 304 302 301 301 303 303 303 305 308 311 312 311 312 313 314 314 314 314 314 314 314 312 311 310 308 305 301 298 295 290 286 282 278 273 268 264 261
231 228 232 239 239 236 240 244 244 245 246 246 254 264 263 256 257 257 253 251 252 264 280 289 291 294 297 297 300 304 303 304 306 305 305 306 304 304 304 302 302 305 306 305 305 306 310 312 313 314 317 319 321 322 323 323 322 321 321 319 317 314 311 308 305 302 298 293 287 283 280 274 268 264
234 234 234 234 235 236 240 244 245 245 247 247 250 259 266 264 265 264 257 256 261 267 276 285 288 292 294 294 297 301 302 302 302 301 301 302 302 303 304 302 302 305 305 305 305 307 310 312 314 318 321 323 323 324 326 327 327 327 327 326 325 322 319 316 311 307 304 300 294 289 286 282 275 269
233 236 238 237 236 237 240 242 244 245 246 248 249 254 260 264 266 269 267 268 272 273 274 281 287 290 291 292 296 299 301 301 302 302 302 303 303 304 304 303 304 306 308 309 311 312 314 316 318 321 321 321 322 326 330 332 332 333 333 332 330 329 326 322 317 313 309 305 301 295 290 285 281 276
231 234 238 241 239 238 240 242 243 244 245 246 249 252 254 257 260 264 268 270 272 273 275 280 284 287 289 291 294 299 303 304 303 302 302 303 305 305 306 308 311 315 319 320 318 318 319 319 319 320 321 324 330 335 339 341 342 341 339 337 335 334 333 331 328 323 317 312 307 302 295 289 285 282
231 233 236 238 240 239 241 243 244 245 246 246 248 250 252 254 257 260 263 265 266 270 273 277 280 284 288 289 291 297 303 302 300 298 297 299 308 315 316 319 323 326 327 324 321 322 323 321 322 327 333 338 343 345 347 347 347 346 344 343 342 342 342 340 337 333 327 321 315 308 301 294 287 284
230 233 235 236 238 240 241 243 245 245 246 246 247 248 249 252 254 257 260 261 262 266 269 272 276 281 285 286 289 294 298 296 297 303 301 301 314 328 325 320 321 325 326 325 324 325 325 326 331 338 342 348 350 349 349 350 351 351 349 347 348 349 349 349 348 344 337 329 320 313 308 301 292 285
231 233 234 236 239 240 241 242 244 245 245 246 246 246 247 249 250 253 256 258 260 262 263 267 273 278 282 285 287 292 294 293 300 313 316 312 316 322 320 317 318 323 327 326 324 326 329 332 336 341 344 349 350 348 350 354 353 349 345 344 348 352 354 355 355 355 352 345 333 322 315 309 302 294
230 232 234 235 238 240 242 243 243 244 243 243 243 244 245 246 248 251 253 253 255 256 258 264 270 276 280 283 286 287 288 292 300 307 310 311 313 316 317 316 319 325 328 325 321 326 336 338 335 339 344 346 348 350 353 351 345 342 344 347 351 353 353 352 352 354 356 355 351 341 329 320 312 305
228 231 233 235 236 237 239 242 244 245 244 244 245 245 246 246 246 247 249 250 251 253 256 262 267 270 274 280 282 281 283 289 295 300 304 307 308 312 313 310 316 324 328 323 319 325 340 341 334 338 344 347 353 354 347 341 339 342 348 351 352 352 354 357 359 359 358 358 356 352 344 333 322 314
228 230 232 235 236 236 237 240 244 247 248 248 247 247 247 246 245 246 249 251 253 255 258 263 267 269 271 276 279 280 283 288 293 296 299 301 303 306 305 301 311 321 326 323 316 320 337 344 338 341 348 351 348 342 340 342 344 345 346 346 350 355 358 0 2 2 0 359 356 353 349 342 332 321
227 229 231 233 235 237 238 238 241 245 249 250 249 247 247 246 246 247 250 254 259 262 264 266 269 272 271 273 279 285 286 286 288 289 292 298 301 300 298 300 308 317 325 325 315 315 335 352 347 343 346 342 337 338 346 354 350 344 345 348 353 358 357 357 359 0 360 358 355 351 347 345 341 332
226 229 231 233 234 236 238 238 238 241 245 247 248 247 246 246 247 248 250 255 259 262 264 264 267 273 274 274 281 289 287 281 282 283 287 294 296 292 294 301 307 317 328 330 318 317 338 357 351 342 338 335 339 349 359 357 349 347 350 354 357 355 352 352 354 355 354 353 353 350 346 344 344 340
229 230 231 234 236 238 239 239 239 241 244 247 248 247 247 248 248 249 251 254 258 262 265 264 266 272 276 276 279 284 283 281 283 283 284 285 285 287 296 302 308 318 328 326 323 325 336 347 349 345 339 338 347 6 6 353 350 352 354 356 354 351 349 348 346 346 349 353 354 353 351 348 345 344
232 233 233 234 237 240 242 243 242 242 245 249 250 249 248 248 249 250 253 257 262 265 264 263 265 269 274 278 279 281 282 282 283 282 279 278 281 289 297 301 306 315 318 317 327 334 336 342 346 346 345 347 356 10 2 352 353 357 359 356 351 348 346 344 342 344 351 359 0 357 356 353 348 345
231 234 236 236 237 239 242 244 244 242 242 244 247 248 247 247 247 251 257 261 262 262 263 266 269 271 274 276 274 274 277 278 280 277 273 278 284 288 291 292 298 307 311 319 338 343 339 341 344 345 350 359 8 3 353 351 357 3 359 354 350 348 346 347 348 351 354 358 2 2 360 357 352 347
229 232 235 236 237 239 241 243 243 242 240 240 242 244 243 243 245 250 255 256 255 259 268 274 275 273 272 270 268 269 273 276 279 274 271 279 284 280 278 282 292 303 309 327 342 342 340 346 352 351 350 358 13 356 349 353 3 5 357 352 350 348 348 352 356 358 359 2 5 5 3 0 358 352
228 229 231 232 232 236 239 240 240 239 238 237 240 242 241 241 244 249 252 251 253 260 266 270 272 273 271 267 265 266 267 270 274 272 273 280 278 273 274 279 289 306 315 329 339 342 345 355 6 6 359 353 341 343 350 360 9 6 356 350 348 348 353 357 359 0 4 7 6 4 1 360 358 354
228 230 232 233 232 232 234 235 236 236 235 235 238 240 239 240 245 249 251 252 255 260 259 259 263 267 266 260 253 251 256 266 274 275 278 282 279 273 269 267 285 309 292 320 338 349 1 3 8 12 11 1 328 337 351 6 14 7 357 351 350 353 357 359 360 2 4 4 3 1 359 359 357 353
227 230 233 235 236 236 235 235 235 235 236 237 239 241 242 244 248 251 251 251 251 249 247 248 252 257 265 269 261 257 261 266 270 275 280 279 270 257 251 266 300 313 305 326 345 1 21 15 7 7 9 7 350 344 352 4 10 5 357 356 357 360 1 0 1 3 2 360 358 358 359 1 360 356
226 230 234 237 240 241 240 240 240 240 241 242 243 245 246 248 249 249 248 246 243 240 242 249 256 263 271 274 273 270 264 259 259 270 271 235 216 235 269 293 310 317 325 342 355 6 24 25 16 12 11 7 359 353 354 358 1 358 357 1 5 5 2 2 2 2 1 357 353 355 2 7 4 359
227 230 233 238 243 245 246 246 245 244 244 244 244 246 247 246 245 244 242 240 239 240 248 257 266 273 274 273 270 264 258 258 263 266 253 227 239 277 298 307 314 328 350 11 11 5 21 29 18 14 15 10 358 354 354 354 358 359 359 2 6 7 5 4 3 1 360 355 352 357 6 8 5 2
229 230 233 238 242 245 247 249 249 247 244 243 244 245 245 242 241 240 238 239 240 245 253 262 268 271 270 268 264 259 257 257 254 250 245 248 280 302 307 313 330 19 47 42 22 9 16 19 13 12 17 12 358 355 356 0 8 10 5 2 4 7 7 5 3 2 360 355 356 2 7 6 5 5
229 231 234 238 243 246 247 248 248 245 243 241 241 242 241 240 239 238 239 241 245 251 258 261 263 264 264 262 258 255 254 250 241 239 243 257 286 303 309 324 18 74 68 41 33 19 6 4 7 13 17 12 9 17 20 16 15 16 12 6 4 5 6 5 4 2 359 357 360 7 9 5 5 9
227 230 234 237 241 244 245 246 245 243 242 241 238 237 237 238 238 239 241 244 246 250 254 255 256 259 259 256 252 247 241 235 231 236 246 262 295 314 328 41 90 92 65 44 32 9 1 4 10 16 17 15 29 47 39 27 21 18 17 13 9 6 5 6 5 3 359 359 3 10 11 8 7 11
225 227 229 232 235 238 241 242 243 242 242 239 235 232 232 234 236 238 241 243 244 245 246 247 251 253 249 244 239 231 224 218 218 229 244 273 314 328 31 96 99 91 69 45 22 16 26 24 15 15 18 24 57 64 36 26 25 20 16 16 16 12 7 6 7 3 360 1 6 12 14 12 11 12
223 224 225 226 228 231 235 238 240 240 239 236 234 231 228 228 229 232 234 236 238 239 239 240 239 234 227 223 218 210 204 200 203 213 229 292 341 98 114 102 91 88 80 52 44 69 73 39 17 18 22 26 52 60 28 23 27 22 15 16 18 17 15 14 10 3 1 5 10 14 15 14 15 16
219 219 219 219 222 225 229 233 235 236 236 234 231 227 223 222 223 224 226 227 228 229 227 225 221 211 202 197 194 192 190 188 192 198 199 145 127 128 116 97 95 93 77 71 95 102 83 39 24 28 30 24 25 29 18 20 26 23 17 16 17 17 20 22 16 6 5 9 10 10 12 15 17 18
213 213 213 213 218 222 224 225 227 229 231 229 224 221 220 219 219 220 222 224 224 222 217 215 211 203 193 187 186 187 184 180 182 189 183 142 136 132 114 105 117 103 62 99 128 120 77 39 33 38 41 24 6 6 13 16 21 23 19 18 17 16 19 24 22 14 12 13 10 9 11 13 16 19
208 209 211 213 219 222 223 224 225 226 226 226 225 223 221 221 222 222 223 226 224 215 209 208 207 201 191 184 184 184 179 175 176 182 184 175 161 155 147 136 133 116 67 146 153 150 99 36 35 49 75 35 346 345 358 358 4 15 19 19 16 14 16 23 23 19 18 18 15 12 11 10 10 13
206 209 212 215 219 220 221 223 224 225 225 226 227 226 224 225 223 217 213 216 210 198 195 197 194 188 182 177 178 179 177 177 185 191 194 199 196 179 154 133 139 147 172 177 178 182 180 46 43 62 95 83 5 334 321 322 336 2 17 20 17 12 13 19 24 23 23 23 19 16 14 11 8 6
206 210 213 216 220 221 221 222 223 226 228 229 230 229 220 204 178 163 174 185 182 183 194 199 188 182 184 181 179 180 183 186 190 190 194 200 195 180 157 132 147 184 191 186 195 206 203 103 68 86 114 113 63 308 307 308 303 338 10 17 15 12 10 13 21 26 27 27 25 20 18 16 13 8
208 210 213 217 220 221 223 224 226 229 233 234 232 217 178 147 139 154 184 195 192 192 201 203 191 181 183 186 187 190 194 196 189 187 197 204 192 175 156 131 156 190 178 184 201 213 207 164 113 129 144 148 170 228 282 300 296 321 2 6 6 8 9 11 17 23 26 29 28 23 20 20 19 15
209 210 212 214 217 219 222 226 229 231 233 229 210 176 151 146 154 169 180 186 188 187 185 185 183 181 182 190 199 201 201 198 191 188 198 201 187 173 156 130 152 185 185 192 201 208 213 222 204 182 179 190 193 207 265 288 291 310 341 349 354 360 6 11 15 18 22 25 25 19 15 18 23 21
204 206 211 213 214 216 218 221 223 220 216 204 179 160 149 147 154 166 178 190 200 197 184 175 178 184 183 187 195 203 205 201 196 192 186 179 176 175 176 173 177 191 210 212 202 202 220 244 233 206 214 287 313 269 264 266 268 282 303 319 336 345 356 10 17 16 18 22 23 18 10 6 12 18
191 195 201 204 203 204 205 206 203 195 183 166 151 145 145 150 167 190 201 198 192 185 175 167 180 195 195 190 192 199 204 198 196 196 190 184 187 196 204 207 202 208 235 247 219 207 221 247 235 210 215 251 252 234 236 246 257 271 277 280 300 323 342 7 19 18 15 17 20 21 13 358 353 6
177 172 167 170 174 176 178 176 167 156 145 133 125 124 128 140 159 181 187 180 170 162 159 165 181 195 203 202 200 202 204 196 189 188 188 193 203 206 204 207 211 216 230 244 239 231 240 253 234 215 213 220 226 228 235 250 266 271 261 253 260 284 312 347 15 17 12 12 19 25 20 1 337 341
158 150 141 140 145 146 147 147 144 141 138 133 129 131 136 141 148 161 169 170 169 167 165 169 175 175 176 183 187 183 172 160 161 164 173 188 199 200 198 205 223 242 250 256 261 261 255 252 247 233 225 228 231 231 238 254 265 261 250 244 239 242 257 277 354 12 4 3 17 28 27 19 5 335
140 136 131 131 133 133 136 139 139 138 137 136 139 145 146 142 142 147 150 150 150 151 152 153 153 150 145 148 151 143 126 115 112 109 113 130 141 158 189 217 318 316 307 295 285 273 261 262 261 243 233 238 239 234 240 253 260 252 242 234 226 223 229 234 246 6 355 351 18 35 32 27 26 8
134 133 132 133 134 134 135 137 137 137 137 137 137 137 135 132 131 131 131 130 129 127 127 129 136 140 139 134 130 124 115 107 102 97 91 86 85 83 64 54 49 35 16 356 335 322 315 304 280 251 244 254 257 250 253 260 260 249 233 226 222 220 219 221 223 228 257 313 45 61 48 39 44 40
Height
864 864 865 865 865 865 865 865 865 865 865 865 865 865 865 866 868 870 870 867 863 862 862 862 861 860 860 861 861 861 860 859 858 857 856 855 853 852 852 851 850 849 848 847 847 846 845 844 842 841 840 839 839 838 837 837 836 835 835 834 834 833 833 832 832 832 831 830 831 834 835 835 835 836
863 863 863 864 864 864 864 864 864 864 865 864 864 865 865 865 866 867 869 867 863 861 862 861 861 861 861 861 861 860 859 858 857 856 855 854 853 852 851 850 849 848 846 845 844 844 843 841 840 839 837 836 836 835 834 834 833 832 831 831 830 829 829 828 828 828 827 826 828 830 830 830 831 831
861 861 862 862 862 863 863 863 864 864 864 864 864 864 864 865 865 864 866 867 864 861 861 860 861 861 860 860 860 859 858 857 856 855 853 852 851 850 849 848 847 846 845 843 842 841 840 839 838 836 835 834 833 832 832 831 830 829 828 827 826 825 825 824 823 823 823 823 824 825 825 826 826 826
860 860 860 861 861 862 862 862 863 863 863 863 863 863 863 863 864 863 864 865 862 861 861 860 859 859 859 859 858 857 856 856 855 853 852 850 849 848 847 846 845 844 843 842 841 839 838 837 835 834 832 831 830 830 829 828 827 826 825 824 823 821 820 819 819 819 819 819 819 820 821 821 821 821
858 858 859 859 860 860 861 861 861 861 862 862 862 862 862 861 862 862 862 862 860 859 860 859 858 858 858 857 856 856 855 854 853 852 850 849 847 846 845 844 843 842 841 840 839 838 836 835 833 832 830 829 829 828 827 826 825 824 822 821 820 818 817 816 815 814 814 814 814 815 815 815 815 816
856 857 857 857 858 859 859 859 860 860 860 860 860 860 860 860 860 861 861 860 859 858 857 857 857 856 856 855 854 854 853 852 851 849 848 847 846 845 843 842 841 841 840 839 837 836 835 833 831 830 829 828 827 826 825 824 823 822 820 818 817 816 814 812 811 810 809 809 809 810 810 810 810 811
854 855 855 855 856 857 857 857 858 858 859 859 859 859 859 859 859 859 859 859 858 857 856 855 855 855 855 854 853 852 851 850 849 847 846 845 844 843 842 841 840 839 838 837 836 835 834 832 830 828 827 826 825 824 823 822 821 820 818 816 815 813 811 810 808 806 805 804 804 804 805 805 805 806
852 852 853 853 854 855 855 856 856 856 857 857 857 857 857 857 857 858 858 857 857 856 855 854 853 853 853 852 851 850 849 848 847 846 844 843 843 842 841 839 838 837 836 835 834 833 832 831 829 827 825 824 823 822 821 820 819 817 816 814 812 811 809 807 805 804 802 801 800 800 800 800 801 801
849 850 851 851 852 853 853 854 854 854 855 855 855 856 855 855 856 856 856 856 855 855 853 852 851 851 851 850 849 848 847 846 845 844 842 841 840 839 838 837 836 836 835 834 833 832 831 830 828 826 824 822 821 820 819 818 816 815 813 812 810 809 807 805 803 801 800 798 797 796 796 797 797 797
847 848 848 849 850 851 851 851 852 852 853 853 853 854 854 854 854 854 854 854 854 853 852 850 850 849 848 847 846 846 846 844 843 842 840 839 839 838 836 836 835 835 834 833 831 830 829 828 827 825 823 821 819 818 817 816 814 813 811 810 808 807 805 803 801 799 797 795 794 793 792 793 793 793
845 845 846 847 848 848 849 849 849 850 851 851 851 852 852 852 852 852 852 852 852 851 850 849 848 847 846 845 844 844 844 843 841 840 838 837 837 837 835 834 833 833 832 831 829 828 827 826 825 823 821 819 818 816 815 814 813 811 810 808 806 804 802 800 798 797 795 793 791 790 789 789 789 790
842 843 844 844 845 846 846 847 847 848 848 849 849 849 850 850 850 850 850 850 849 849 848 847 846 845 845 844 842 842 842 841 840 839 838 836 836 836 835 833 832 831 830 829 827 826 825 824 822 821 820 818 816 815 814 813 812 810 809 806 804 802 800 798 796 794 792 790 789 787 787 786 786 787
839 840 841 842 842 843 844 844 845 845 846 846 847 847 847 848 848 847 848 847 847 847 846 845 845 844 842 841 841 840 840 839 838 838 837 836 835 835 834 832 831 830 829 828 826 824 823 821 820 819 818 817 816 814 813 812 811 809 807 805 803 801 799 796 794 792 790 788 787 785 784 784 784 784
836 837 838 839 840 840 841 842 842 843 843 844 844 844 845 845 845 845 845 845 845 845 844 843 843 842 840 839 839 839 838 837 837 836 836 835 834 833 832 831 830 829 828 827 824 822 822 820 819 818 817 816 815 814 813 812 810 808 806 804 802 800 798 796 793 791 789 787 785 784 783 782 782 781
833 834 835 836 837 838 838 839 839 839 840 840 841 841 842 842 843 843 843 843 843 843 842 841 841 840 839 837 837 837 836 835 835 834 834 833 832 832 831 830 828 827 827 826 823 821 820 820 818 817 816 815 814 813 812 810 808 806 804 803 801 799 797 795 792 790 788 786 784 783 782 781 780 779
830 831 832 832 833 835 835 836 836 837 837 838 838 838 839 840 840 840 840 840 840 840 840 839 838 838 837 835 835 835 834 834 834 833 833 832 831 830 830 828 827 826 825 825 822 820 819 819 817 816 815 814 813 812 811 808 806 804 802 800 799 797 795 793 791 789 787 786 784 782 781 779 778 777
827 828 829 829 830 831 832 833 834 834 834 835 835 836 836 837 837 837 838 838 838 838 838 836 835 834 835 834 833 832 833 832 832 832 831 831 830 829 828 827 826 824 824 823 821 819 818 818 817 815 814 813 812 810 809 807 805 803 801 799 798 796 794 792 790 789 786 785 783 781 779 778 777 775
823 824 826 826 827 828 829 830 831 831 831 832 832 832 833 833 834 834 835 835 835 835 835 834 832 832 832 832 830 831 831 831 830 830 830 829 828 827 826 826 824 823 822 822 820 818 818 817 816 815 813 812 811 810 808 806 804 802 801 799 797 795 793 791 790 788 785 784 782 780 778 777 775 774
820 821 822 823 824 825 825 826 827 828 829 829 829 829 829 830 830 831 831 832 832 832 832 831 830 829 829 829 828 829 829 829 828 828 828 828 827 825 825 824 823 822 822 821 819 817 817 816 816 815 813 811 810 809 808 806 804 802 800 798 796 794 792 790 788 786 784 782 781 779 777 775 774 772
817 818 819 820 820 821 822 823 824 825 826 826 826 826 826 827 827 827 828 828 829 829 828 828 828 827 827 826 826 827 827 827 827 827 827 826 825 824 823 822 822 822 821 820 818 817 816 814 814 813 812 810 809 808 807 805 804 802 800 798 795 793 791 788 786 784 782 780 779 777 776 774 772 771
813 814 815 816 817 817 818 819 820 822 823 823 823 823 823 824 824 823 824 825 826 826 825 825 825 824 824 824 824 825 825 825 825 825 825 824 823 823 822 821 821 821 820 819 818 817 815 814 812 810 810 809 808 807 806 804 804 802 800 798 796 793 790 787 785 783 781 779 778 776 774 772 771 769
810 811 812 812 813 813 814 815 817 818 820 820 820 821 821 821 820 820 821 822 822 822 822 822 822 821 821 821 822 822 823 823 823 823 822 821 821 821 821 820 820 820 819 817 817 816 815 814 812 809 807 807 808 807 806 804 803 801 799 797 795 792 789 786 784 782 780 778 777 775 773 771 769 768
806 807 808 809 809 810 810 812 813 814 816 817 817 817 818 818 817 817 818 819 819 820 820 820 819 819 818 819 819 820 821 821 821 821 820 819 819 819 819 819 819 819 818 817 816 816 815 814 813 811 808 807 806 806 806 805 804 802 800 797 795 792 789 786 784 781 779 778 776 774 772 771 769 767
801 802 803 804 805 806 807 808 810 811 812 813 813 814 815 814 813 814 816 817 817 818 818 817 817 817 817 817 817 818 819 819 819 818 818 818 817 817 817 818 818 818 817 817 816 816 815 814 814 813 812 811 809 806 805 805 805 803 801 798 795 792 788 786 784 781 779 778 776 774 772 770 769 767
796 797 798 799 800 801 803 804 806 807 808 809 810 810 810 810 811 812 814 814 815 815 815 815 816 816 816 817 817 817 818 817 817 816 816 816 816 816 816 816 816 816 816 816 816 815 814 814 813 812 812 812 811 808 806 805 805 804 802 800 796 792 789 787 784 782 779 777 775 773 771 769 768 767
792 793 793 794 795 797 798 800 802 803 804 805 806 806 806 807 809 810 811 812 813 813 813 813 814 814 815 816 816 816 816 816 815 815 815 815 815 815 815 815 815 815 815 815 815 814 814 814 813 812 812 811 811 810 807 805 805 804 802 800 797 793 790 788 785 782 780 777 774 772 770 768 767 765
787 788 789 790 791 793 794 796 797 798 800 801 801 802 803 805 806 807 808 809 810 811 811 812 812 813 814 814 814 815 815 815 814 814 814 814 814 814 814 814 814 814 814 814 814 813 814 814 813 813 812 812 811 810 808 807 806 804 801 799 797 794 791 788 785 783 781 779 775 772 770 768 766 764
783 784 786 787 789 790 791 792 793 794 795 796 797 798 800 802 803 804 806 807 808 809 809 810 810 811 811 812 813 813 813 813 813 813 813 813 813 813 813 813 812 812 812 813 813 813 814 814 813 813 813 812 811 810 810 809 808 805 802 799 796 794 791 789 786 784 783 780 776 772 770 768 766 763
780 782 783 785 786 786 787 788 789 790 791 792 793 795 797 798 800 801 803 804 806 806 807 808 808 808 809 810 810 811 811 812 812 812 812 812 812 812 812 811 811 811 812 812 812 813 813 813 813 813 813 812 812 811 811 810 808 807 804 800 797 794 792 790 787 785 783 781 777 774 772 770 767 765
777 779 781 782 782 783 784 785 785 786 787 789 790 792 793 795 796 798 800 802 803 804 804 805 805 806 807 808 808 809 809 810 810 810 810 811 811 810 810 810 810 811 812 812 812 813 813 813 813 813 812 811 811 811 811 810 808 807 805 802 799 796 793 790 788 787 784 781 778 776 774 772 769 766
774 776 777 778 779 780 781 782 782 783 784 785 787 788 790 792 794 796 797 799 800 800 801 802 802 803 804 805 806 807 807 807 808 808 809 809 809 809 809 810 811 811 812 812 812 813 813 813 812 812 811 811 811 811 810 809 808 806 804 803 801 798 795 792 789 787 786 783 780 777 774 772 769 766
771 773 774 775 777 778 778 779 780 780 781 782 784 785 787 789 791 793 794 796 796 797 797 798 799 800 801 802 803 804 804 805 806 806 807 807 807 808 809 809 810 811 811 812 813 813 813 813 812 811 811 810 810 810 810 808 807 806 804 802 800 799 796 793 790 788 786 783 779 777 775 772 769 767
768 770 771 772 774 775 776 777 778 778 779 780 781 783 784 786 788 789 791 792 792 792 794 796 797 798 798 799 801 802 802 803 804 805 805 806 806 807 808 808 809 810 811 812 813 812 812 812 812 811 810 810 809 809 809 808 807 805 803 802 800 798 795 793 792 790 787 783 780 777 775 773 770 768
764 766 767 769 770 772 773 774 775 776 777 778 779 780 781 783 784 786 787 788 788 790 792 793 794 794 795 797 798 800 801 802 803 804 804 805 805 806 806 807 807 808 810 811 812 812 811 811 810 810 810 809 809 808 808 807 805 804 803 801 799 797 795 793 792 790 788 785 781 779 776 774 771 769
760 763 764 766 767 769 770 771 772 774 775 776 777 778 779 780 781 783 785 786 786 788 789 789 789 790 791 793 795 798 800 801 802 803 804 804 805 805 805 805 806 807 809 810 810 811 810 810 809 809 808 808 808 807 806 805 804 803 802 800 798 797 795 793 791 790 788 786 782 779 777 775 772 769
755 758 760 762 763 765 766 768 770 772 773 774 775 775 776 778 779 781 784 787 789 789 789 790 791 792 793 794 795 796 798 799 801 802 803 804 805 804 804 804 804 806 807 808 809 809 809 808 808 807 807 807 807 805 804 803 803 802 800 799 798 796 795 793 792 790 788 785 783 781 779 777 774 772
752 754 756 758 760 762 764 766 768 769 770 771 771 772 773 775 778 781 784 786 788 789 789 791 793 794 795 795 796 796 797 797 799 800 802 803 804 804 803 802 803 804 806 806 807 807 807 806 806 806 806 806 806 804 802 801 801 801 800 798 797 796 795 794 792 790 787 785 784 783 781 780 777 775
748 750 752 754 757 759 761 764 765 766 767 768 768 769 771 772 773 776 779 781 783 784 786 788 790 792 793 794 796 797 797 797 797 799 799 801 802 802 802 801 801 802 804 805 805 805 805 804 804 804 804 804 804 803 801 799 799 799 798 798 797 796 795 793 792 790 787 785 784 784 783 781 779 777
745 747 749 751 755 757 759 761 762 763 764 764 764 765 766 769 772 776 780 783 785 785 786 787 788 789 790 793 796 798 798 797 797 797 798 799 800 800 800 800 800 801 802 803 804 804 803 803 802 802 802 801 801 801 800 798 798 797 797 797 796 795 794 793 792 790 788 785 784 784 783 782 781 779
742 745 747 750 753 755 757 759 760 761 761 762 763 763 764 769 775 779 780 782 784 786 788 789 789 790 791 793 796 797 798 797 796 796 796 797 798 799 799 799 799 799 800 800 801 802 801 800 800 800 799 799 798 798 798 798 797 796 796 795 795 794 794 793 791 790 788 785 784 783 783 783 781 780
743 746 747 749 751 753 754 756 758 759 760 761 763 764 766 770 775 777 776 777 781 784 786 788 791 793 793 794 795 796 796 795 795 794 795 796 797 798 798 797 797 798 798 798 799 798 798 798 798 798 797 797 797 797 797 796 796 794 794 794 793 793 792 792 791 789 788 786 784 782 782 782 781 780
745 747 748 748 749 751 752 754 756 758 760 762 764 766 768 771 774 776 777 779 781 782 783 784 787 791 793 794 794 794 794 793 793 793 794 795 795 796 796 795 796 796 796 796 796 796 795 795 795 795 795 795 795 795 795 794 793 792 792 792 792 791 791 790 790 789 787 786 784 782 782 782 782 781
744 746 747 748 748 749 751 754 756 758 760 763 765 767 769 771 774 777 778 779 781 782 783 784 786 788 792 793 793 792 792 792 792 792 793 794 795 795 795 794 794 794 794 794 794 794 793 793 793 793 793 793 793 793 792 791 791 790 790 790 790 790 789 789 788 787 786 785 784 782 782 782 781 781
742 744 745 746 747 749 751 753 756 758 760 762 765 767 769 771 774 777 778 779 781 782 783 784 785 787 789 790 790 790 790 791 791 791 792 793 793 794 794 793 792 792 792 792 792 792 792 791 791 791 790 790 790 790 789 789 788 788 788 788 788 787 787 787 787 786 786 785 784 782 782 781 780 780
740 741 743 744 746 747 750 752 754 757 759 761 763 766 768 770 772 775 777 778 780 781 782 783 784 785 787 787 788 788 788 789 790 790 791 792 792 792 792 792 791 791 791 791 790 790 790 789 789 789 789 788 788 788 787 787 786 786 785 785 785 785 785 785 785 785 785 784 783 782 782 781 780 780